| time (UTC) | temp F | wind direction | speed MPH | gust MPH | rain 1hr in | rain 24hr in | rain mn in | humidity % | barometer mb |
| 20260504044755 | 50 | 229 | 0.0 | 0.0 | 0.00 | 0.00 | 0.00 | 60 | 1014.8 |
| 20260504043951 | 50 | 229 | 0.0 | 1.0 | 0.00 | 0.00 | 0.00 | 60 | 1014.8 |
| 20260504043532 | 50 | 229 | 0.0 | 1.0 | 0.00 | 0.00 | 0.00 | 60 | 1014.9 |
| 20260504042717 | 50 | 229 | 0.0 | 0.0 | 0.00 | 0.00 | 0.00 | 60 | 1014.8 |
| 20260504042203 | 50 | 229 | 0.0 | 2.0 | 0.00 | 0.00 | 0.00 | 61 | 1014.7 |
| 20260504041624 | 50 | 229 | 0.0 | 2.0 | 0.00 | 0.00 | 0.00 | 61 | 1014.7 |
| 20260504041458 | 50 | 229 | 0.0 | 1.0 | 0.00 | 0.00 | 0.00 | 61 | 1014.7 |
| 20260504040951 | 50 | 229 | 0.0 | 1.0 | 0.00 | 0.00 | 0.00 | 61 | 1014.7 |
| 20260504035921 | 50 | 229 | 0.0 | 0.0 | 0.00 | 0.00 | 0.00 | 61 | 1014.7 |
| 20260504035609 | 50 | 229 | 0.0 | 0.0 | 0.00 | 0.00 | 0.00 | 61 | 1014.7 |
| 20260504034813 | 50 | 229 | 0.0 | 0.0 | 0.00 | 0.00 | 0.00 | 61 | 1014.6 |
| 20260504034219 | 50 | 229 | 0.0 | 0.0 | 0.00 | 0.00 | 0.00 | 61 | 1014.6 |
| 20260504033930 | 50 | 229 | 0.0 | 0.0 | 0.00 | 0.00 | 0.00 | 61 | 1014.4 |
| 20260504033131 | 50 | 229 | 0.0 | 0.0 | 0.00 | 0.00 | 0.00 | 61 | 1014.3 |
| 20260504032710 | 50 | 229 | 0.0 | 0.0 | 0.00 | 0.00 | 0.00 | 60 | 1014.2 |
| 20260504032219 | 50 | 229 | 0.0 | 0.0 | 0.00 | 0.00 | 0.00 | 60 | 1014.3 |
| 20260504031445 | 50 | 229 | 0.0 | 0.0 | 0.00 | 0.00 | 0.00 | 60 | 1014.4 |
| 20260504030917 | 50 | 229 | 0.0 | 0.0 | 0.00 | 0.00 | 0.00 | 60 | 1014.3 |
| 20260504030301 | 50 | 229 | 0.0 | 0.0 | 0.00 | 0.00 | 0.00 | 59 | 1014.3 |
| 20260504025707 | 50 | 229 | 0.0 | 0.0 | 0.00 | 0.00 | 0.00 | 59 | 1014.3 |
| 20260504025131 | 50 | 229 | 0.0 | 0.0 | 0.00 | 0.00 | 0.00 | 60 | 1014.2 |
| 20260504025007 | 50 | 229 | 0.0 | 0.0 | 0.00 | 0.00 | 0.00 | 59 | 1014.2 |
| 20260504024020 | 50 | 229 | 0.0 | 0.0 | 0.00 | 0.00 | 0.00 | 59 | 1014.2 |
| 20260504023556 | 50 | 229 | 0.0 | 0.0 | 0.00 | 0.00 | 0.00 | 59 | 1014.2 |
| 20260504022909 | 51 | 229 | 0.0 | 0.0 | 0.00 | 0.00 | 0.00 | 59 | 1014.2 |
| 20260504022849 | 51 | 229 | 0.0 | 0.0 | 0.00 | 0.00 | 0.00 | 59 | 1014.3 |
| 20260504022600 | 51 | 229 | 0.0 | 0.0 | 0.00 | 0.00 | 0.00 | 59 | 1014.2 |
| 20260504021820 | 51 | 229 | 0.0 | 0.0 | 0.00 | 0.00 | 0.00 | 59 | 1014.2 |
| 20260504021220 | 51 | 229 | 0.0 | 0.0 | 0.00 | 0.00 | 0.00 | 58 | 1014.2 |
| 20260504020627 | 51 | 229 | 0.0 | 0.0 | 0.00 | 0.00 | 0.00 | 58 | 1014.1 |
| 20260504015553 | 51 | 229 | 0.0 | 0.0 | 0.00 | 0.00 | 0.00 | 57 | 1014.1 |
| 20260504015013 | 51 | 229 | 0.0 | 0.0 | 0.00 | 0.00 | 0.00 | 58 | 1014.1 |
| 20260504014340 | 51 | 229 | 0.0 | 0.0 | 0.00 | 0.00 | 0.00 | 57 | 1014.1 |
| 20260504013853 | 51 | 229 | 0.0 | 0.0 | 0.00 | 0.00 | 0.00 | 57 | 1014.1 |
| 20260504013303 | 52 | 229 | 0.0 | 0.0 | 0.00 | 0.00 | 0.00 | 57 | 1014.0 |
| 20260504012748 | 52 | 229 | 0.0 | 0.0 | 0.00 | 0.00 | 0.00 | 57 | 1014.0 |
| 20260504012139 | 52 | 229 | 0.0 | 0.0 | 0.00 | 0.00 | 0.00 | 56 | 1013.8 |
| 20260504011525 | 53 | 229 | 0.0 | 0.0 | 0.00 | 0.00 | 0.00 | 55 | 1013.8 |
| 20260504010938 | 53 | 229 | 0.0 | 0.0 | 0.00 | 0.00 | 0.00 | 55 | 1013.8 |
| 20260504010331 | 53 | 229 | 0.0 | 0.0 | 0.00 | 0.00 | 0.00 | 53 | 1013.8 |
| 20260504010319 | 53 | 229 | 0.0 | 0.0 | 0.00 | 0.00 | 0.00 | 54 | 1013.7 |
| 20260504005625 | 54 | 229 | 0.0 | 0.0 | 0.00 | 0.00 | 0.00 | 52 | 1013.8 |
| 20260504004803 | 54 | 229 | 0.0 | 0.0 | 0.00 | 0.00 | 0.00 | 52 | 1013.7 |
| 20260504004016 | 54 | 229 | 0.0 | 0.0 | 0.00 | 0.00 | 0.00 | 51 | 1013.6 |
| 20260504003451 | 55 | 229 | 0.0 | 0.0 | 0.00 | 0.00 | 0.00 | 50 | 1013.6 |
| 20260504002852 | 55 | 229 | 0.0 | 0.0 | 0.00 | 0.00 | 0.00 | 50 | 1013.5 |
| 20260504002312 | 56 | 229 | 0.0 | 0.0 | 0.00 | 0.00 | 0.00 | 49 | 1013.5 |
| 20260504001724 | 56 | 229 | 0.0 | 0.0 | 0.00 | 0.00 | 0.00 | 48 | 1013.5 |
| 20260504001117 | 57 | 229 | 0.0 | 0.0 | 0.00 | 0.00 | 0.00 | 47 | 1013.4 |
| 20260504000535 | 57 | 229 | 0.0 | 0.0 | 0.00 | 0.00 | 0.00 | 46 | 1013.4 |
| 20260504000049 | 58 | 229 | 0.0 | 0.0 | 0.00 | 0.00 | 0.00 | 46 | 1013.3 |
| 20260503235643 | 58 | 229 | 0.0 | 0.0 | 0.00 | 0.00 | 0.00 | 44 | 1013.2 |
| 20260503234848 | 58 | 229 | 0.0 | 0.0 | 0.00 | 0.00 | 0.00 | 42 | 1013.1 |
| 20260503234330 | 59 | 229 | 0.0 | 0.0 | 0.00 | 0.00 | 0.00 | 42 | 1013.1 |
| 20260503233751 | 59 | 229 | 0.0 | 0.0 | 0.00 | 0.00 | 0.00 | 41 | 1013.0 |
| 20260503233529 | 60 | 229 | 0.0 | 0.0 | 0.00 | 0.00 | 0.00 | 40 | 1013.0 |
| 20260503232600 | 60 | 229 | 0.0 | 0.0 | 0.00 | 0.00 | 0.00 | 39 | 1013.0 |
| 20260503231956 | 60 | 229 | 0.0 | 2.0 | 0.00 | 0.00 | 0.00 | 38 | 1013.0 |
| 20260503231430 | 60 | 229 | 0.0 | 0.0 | 0.00 | 0.00 | 0.00 | 40 | 1012.9 |
| 20260503231011 | 60 | 229 | 0.0 | 2.0 | 0.00 | 0.00 | 0.00 | 37 | 1013.0 |
| 20260503230353 | 60 | 229 | 0.0 | 2.0 | 0.00 | 0.00 | 0.00 | 36 | 1012.9 |
| 20260503225712 | 60 | 229 | 0.0 | 2.0 | 0.00 | 0.00 | 0.00 | 37 | 1013.0 |
| 20260503225114 | 61 | 229 | 0.0 | 2.0 | 0.00 | 0.00 | 0.00 | 37 | 1013.0 |
| 20260503224542 | 61 | 229 | 0.0 | 2.0 | 0.00 | 0.00 | 0.00 | 36 | 1013.0 |
| 20260503224433 | 61 | 229 | 0.0 | 5.0 | 0.00 | 0.00 | 0.00 | 35 | 1013.0 |
| 20260503223443 | 61 | 230 | 0.0 | 5.0 | 0.00 | 0.00 | 0.00 | 34 | 1013.0 |
| 20260503222959 | 61 | 229 | 1.0 | 6.0 | 0.00 | 0.00 | 0.00 | 35 | 1012.9 |
| 20260503222317 | 61 | 229 | 1.0 | 6.0 | 0.00 | 0.00 | 0.00 | 33 | 1013.0 |
| 20260503222136 | 62 | 231 | 2.0 | 12.0 | 0.00 | 0.00 | 0.00 | 33 | 1013.1 |
| 20260503221917 | 62 | 231 | 2.0 | 12.0 | 0.00 | 0.00 | 0.00 | 33 | 1013.1 |
| 20260503221210 | 62 | 247 | 2.0 | 12.0 | 0.00 | 0.00 | 0.00 | 32 | 1013.0 |
| 20260503220602 | 62 | 245 | 1.0 | 9.0 | 0.00 | 0.00 | 0.00 | 32 | 1013.1 |
| 20260503220245 | 62 | 275 | 1.0 | 6.0 | 0.00 | 0.00 | 0.00 | 33 | 1013.1 |
| 20260503220017 | 62 | 275 | 1.0 | 6.0 | 0.00 | 0.00 | 0.00 | 33 | 1013.1 |
| 20260503215503 | 62 | 257 | 1.0 | 6.0 | 0.00 | 0.00 | 0.00 | 33 | 1013.0 |
| 20260503215059 | 63 | 244 | 1.0 | 5.0 | 0.00 | 0.00 | 0.00 | 32 | 1012.9 |
| 20260503214258 | 63 | 221 | 1.0 | 5.0 | 0.00 | 0.00 | 0.00 | 31 | 1013.0 |
| 20260503213738 | 64 | 184 | 1.0 | 8.0 | 0.00 | 0.00 | 0.00 | 31 | 1013.0 |
| 20260503213655 | 64 | 173 | 1.0 | 5.0 | 0.00 | 0.00 | 0.00 | 31 | 1012.9 |
| 20260503212555 | 64 | 259 | 0.0 | 8.0 | 0.00 | 0.00 | 0.00 | 30 | 1013.1 |
| 20260503212027 | 64 | 234 | 1.0 | 8.0 | 0.00 | 0.00 | 0.00 | 31 | 1012.9 |
| 20260503211451 | 64 | 234 | 1.0 | 8.0 | 0.00 | 0.00 | 0.00 | 31 | 1012.8 |
| 20260503210918 | 64 | 263 | 1.0 | 10.0 | 0.00 | 0.00 | 0.00 | 31 | 1012.9 |
| 20260503210339 | 64 | 244 | 1.0 | 9.0 | 0.00 | 0.00 | 0.00 | 30 | 1012.8 |
| 20260503205751 | 64 | 200 | 1.0 | 12.0 | 0.00 | 0.00 | 0.00 | 31 | 1012.8 |
| 20260503205208 | 64 | 220 | 1.0 | 6.0 | 0.00 | 0.00 | 0.00 | 30 | 1013.0 |
| 20260503204558 | 64 | 245 | 2.0 | 10.0 | 0.00 | 0.00 | 0.00 | 32 | 1013.0 |
| 20260503204118 | 64 | 252 | 1.0 | 11.0 | 0.00 | 0.00 | 0.00 | 31 | 1012.9 |
| 20260503203427 | 64 | 218 | 1.0 | 11.0 | 0.00 | 0.00 | 0.00 | 32 | 1013.0 |
| 20260503202838 | 63 | 228 | 2.0 | 12.0 | 0.00 | 0.00 | 0.00 | 32 | 1013.1 |
| 20260503202308 | 63 | 231 | 2.0 | 12.0 | 0.00 | 0.00 | 0.00 | 31 | 1013.2 |
| 20260503201725 | 64 | 244 | 1.0 | 9.0 | 0.00 | 0.00 | 0.00 | 32 | 1013.3 |
| 20260503201256 | 63 | 269 | 1.0 | 9.0 | 0.00 | 0.00 | 0.00 | 33 | 1013.3 |
| 20260503200859 | 63 | 214 | 3.0 | 20.0 | 0.00 | 0.00 | 0.00 | 31 | 1013.4 |
| 20260503200853 | 63 | 250 | 2.0 | 20.0 | 0.00 | 0.00 | 0.00 | 31 | 1013.6 |
| 20260503195401 | 63 | 50 | 1.0 | 11.0 | 0.00 | 0.00 | 0.00 | 32 | 1013.6 |
| 20260503194909 | 63 | 48 | 1.0 | 11.0 | 0.00 | 0.00 | 0.00 | 32 | 1013.7 |
| 20260503194227 | 63 | 0 | 1.0 | 9.0 | 0.00 | 0.00 | 0.00 | 31 | 1013.7 |
| 20260503193715 | 63 | 223 | 1.0 | 12.0 | 0.00 | 0.00 | 0.00 | 32 | 1013.7 |
| 20260503193126 | 63 | 235 | 1.0 | 12.0 | 0.00 | 0.00 | 0.00 | 32 | 1013.8 |
| 20260503192713 | 63 | 226 | 1.0 | 12.0 | 0.00 | 0.00 | 0.00 | 33 | 1014.0 |
| 20260503192114 | 63 | 9 | 1.0 | 12.0 | 0.00 | 0.00 | 0.00 | 33 | 1014.0 |
| 20260503191623 | 62 | 212 | 1.0 | 14.0 | 0.00 | 0.00 | 0.00 | 32 | 1014.0 |
| 20260503190846 | 62 | 259 | 1.0 | 14.0 | 0.00 | 0.00 | 0.00 | 32 | 1014.1 |
| 20260503190311 | 62 | 283 | 2.0 | 5.0 | 0.00 | 0.00 | 0.00 | 33 | 1014.0 |
| 20260503185655 | 62 | 258 | 1.0 | 11.0 | 0.00 | 0.00 | 0.00 | 32 | 1014.0 |
| 20260503185105 | 62 | 198 | 1.0 | 7.0 | 0.00 | 0.00 | 0.00 | 33 | 1014.2 |
| 20260503184554 | 62 | 244 | 1.0 | 12.0 | 0.00 | 0.00 | 0.00 | 32 | 1014.2 |
| 20260503183927 | 62 | 240 | 1.0 | 12.0 | 0.00 | 0.00 | 0.00 | 32 | 1014.1 |
| 20260503183505 | 61 | 67 | 2.0 | 9.0 | 0.00 | 0.00 | 0.00 | 32 | 1014.2 |
| 20260503182947 | 61 | 224 | 2.0 | 16.0 | 0.00 | 0.00 | 0.00 | 31 | 1014.2 |
| 20260503182248 | 61 | 319 | 2.0 | 16.0 | 0.00 | 0.00 | 0.00 | 32 | 1014.3 |
| 20260503181904 | 61 | 200 | 1.0 | 11.0 | 0.00 | 0.00 | 0.00 | 34 | 1014.2 |
| 20260503181158 | 60 | 208 | 2.0 | 10.0 | 0.00 | 0.00 | 0.00 | 34 | 1014.4 |
| 20260503180626 | 60 | 303 | 3.0 | 11.0 | 0.00 | 0.00 | 0.00 | 34 | 1014.4 |
| 20260503180024 | 60 | 241 | 2.0 | 11.0 | 0.00 | 0.00 | 0.00 | 32 | 1014.5 |
| 20260503175505 | 60 | 63 | 2.0 | 13.0 | 0.00 | 0.00 | 0.00 | 34 | 1014.4 |
| 20260503175051 | 60 | 251 | 2.0 | 13.0 | 0.00 | 0.00 | 0.00 | 35 | 1014.2 |
| 20260503174320 | 59 | 229 | 2.0 | 10.0 | 0.00 | 0.00 | 0.00 | 34 | 1014.3 |
| 20260503173733 | 59 | 248 | 2.0 | 10.0 | 0.00 | 0.00 | 0.00 | 34 | 1014.4 |
| 20260503173259 | 59 | 327 | 2.0 | 13.0 | 0.00 | 0.00 | 0.00 | 34 | 1014.6 |
| 20260503172600 | 59 | 252 | 2.0 | 13.0 | 0.00 | 0.00 | 0.00 | 35 | 1014.6 |
| 20260503172148 | 59 | 207 | 1.0 | 9.0 | 0.00 | 0.00 | 0.00 | 35 | 1014.7 |
| 20260503171417 | 58 | 61 | 2.0 | 11.0 | 0.00 | 0.00 | 0.00 | 36 | 1014.8 |
| 20260503171228 | 58 | 229 | 1.0 | 8.0 | 0.00 | 0.00 | 0.00 | 36 | 1014.8 |
| 20260503171035 | 57 | 213 | 1.0 | 8.0 | 0.00 | 0.00 | 0.00 | 35 | 1014.8 |
| 20260503171024 | 57 | 199 | 1.0 | 3.0 | 0.00 | 0.00 | 0.00 | 35 | 1014.9 |
| 20260503171006 | 56 | 237 | 2.0 | 10.0 | 0.00 | 0.00 | 0.00 | 37 | 1014.9 |
| 20260503170927 | 58 | 260 | 3.0 | 11.0 | 0.00 | 0.00 | 0.00 | 35 | 1014.8 |
| 20260503170715 | 58 | 54 | 1.0 | 11.0 | 0.00 | 0.00 | 0.00 | 36 | 1014.9 |
| 20260503150459 | 53 | 228 | 3.0 | 9.0 | 0.00 | 0.00 | 0.00 | 39 | 1015.3 |
| 20260503140252 | 51 | 336 | 2.0 | 4.0 | 0.00 | 0.00 | 0.00 | 47 | 1015.1 |
| 20260503131122 | 49 | 104 | 2.0 | 2.0 | 0.00 | 0.00 | 0.00 | 52 | 1015.3 |
| 20260503131049 | 49 | 254 | 1.0 | 10.0 | 0.00 | 0.00 | 0.00 | 50 | 1015.3 |
| 20260503120221 | 46 | 223 | 2.0 | 11.0 | 0.00 | 0.00 | 0.00 | 58 | 1014.9 |
| 20260503110349 | 44 | 244 | 1.0 | 8.0 | 0.00 | 0.00 | 0.00 | 62 | 1014.0 |
| 20260503100129 | 44 | 244 | 1.0 | 8.0 | 0.00 | 0.00 | 0.00 | 63 | 1013.0 |
| 20260503090432 | 45 | 236 | 2.0 | 12.0 | 0.00 | 0.00 | 0.00 | 62 | 1012.4 |
| 20260503081230 | 46 | 239 | 2.0 | 13.0 | 0.00 | 0.00 | 0.00 | 59 | 1012.0 |
| 20260503080710 | 46 | 181 | 2.0 | 14.0 | 0.00 | 0.00 | 0.00 | 59 | 1012.0 |
| 20260503080128 | 46 | 231 | 3.0 | 14.0 | 0.00 | 0.00 | 0.00 | 59 | 1011.9 |
| 20260503072725 | 47 | 245 | 2.0 | 9.0 | 0.00 | 0.00 | 0.00 | 57 | 1011.5 |
| 20260503072247 | 47 | 250 | 2.0 | 9.0 | 0.00 | 0.00 | 0.00 | 57 | 1011.6 |
| 20260503071643 | 48 | 240 | 1.0 | 10.0 | 0.00 | 0.00 | 0.00 | 57 | 1011.4 |
| 20260503071055 | 48 | 219 | 1.0 | 10.0 | 0.00 | 0.00 | 0.00 | 56 | 1011.4 |
| 20260503070731 | 48 | 242 | 2.0 | 9.0 | 0.00 | 0.00 | 0.00 | 56 | 1011.3 |
| 20260503070155 | 48 | 235 | 1.0 | 9.0 | 0.00 | 0.00 | 0.00 | 56 | 1011.3 |
| 20260503054512 | 51 | 98 | 2.0 | 14.0 | 0.00 | 0.00 | 0.00 | 54 | 1011.3 |
| 20260503054126 | 51 | 343 | 2.0 | 14.0 | 0.00 | 0.00 | 0.00 | 54 | 1011.2 |
| 20260503053336 | 51 | 9 | 2.0 | 11.0 | 0.00 | 0.00 | 0.00 | 54 | 1011.4 |
| 20260503052823 | 51 | 13 | 1.0 | 11.0 | 0.00 | 0.00 | 0.00 | 53 | 1011.3 |
| 20260503052140 | 51 | 41 | 1.0 | 12.0 | 0.00 | 0.00 | 0.00 | 53 | 1011.3 |
| 20260503051659 | 52 | 12 | 1.0 | 12.0 | 0.00 | 0.00 | 0.00 | 52 | 1011.3 |
| 20260503051531 | 52 | 28 | 1.0 | 9.0 | 0.00 | 0.00 | 0.00 | 52 | 1011.4 |
| 20260503051317 | 52 | 28 | 1.0 | 9.0 | 0.00 | 0.00 | 0.00 | 52 | 1011.4 |
| 20260503050824 | 52 | 159 | 1.0 | 12.0 | 0.00 | 0.00 | 0.00 | 53 | 1011.3 |
| 20260503045836 | 52 | 96 | 1.0 | 12.0 | 0.00 | 0.00 | 0.00 | 53 | 1011.4 |
| 20260503045504 | 53 | 19 | 1.0 | 9.0 | 0.00 | 0.00 | 0.00 | 52 | 1011.2 |
| 20260503045403 | 53 | 336 | 1.0 | 9.0 | 0.00 | 0.00 | 0.00 | 53 | 1011.3 |